STARLINK-11288 [DTC]

Last updated on Fri Oct 04 2024 00:02:04 GMT+0000 (Coordinated Universal Time)

1 61002U 24158N 24277.43109774 -.00002504 00000+0 -12328-4 0 9998 2 61002 53.1590 336.1163 0001621 130.8600 229.2561 15.74956733 5557
UTC large
Height (km)
Speed (km/s)
/
Latitude / Longitude
Inclination (degrees)
Orbital Period (minutes)
Azimuth
Elevation
Range (km)
Doppler Factor

Next 0 passes for location: London (51.5072 / 0.1276)

Sorry there are no passes over London.